owner,sensor,date,latitude,longitude,vertical_datum,wind_speed,wind_to_direction,wind_speed_of_gust,qcFlag 
ADCP,ioos:station:wmo:42361:1,2007-10-05T19:00:00Z,27.5500,-92.4900,122.0,13.0,210.0,99.0,'11111222,11111222,11144222' 
ADCP,ioos:station:wmo:42361:1,2007-10-05T20:00:00Z,27.5500,-92.4900,122.0,10.0,200.0,99.0,'11111222,11111222,11144222' 
ADCP,ioos:station:wmo:42361:1,2007-10-05T21:00:00Z,27.5500,-92.4900,122.0,8.0,190.0,99.0,'11111222,11111222,11144222' 
ADCP,ioos:station:wmo:42361:1,2007-10-05T22:00:00Z,27.5500,-92.4900,122.0,7.0,180.0,99.0,'11111222,11111222,11144222' 
ADCP,ioos:station:wmo:42361:1,2007-10-05T23:00:00Z,27.5500,-92.4900,122.0,3.0,170.0,99.0,'11111222,11111222,11144222' 
ADCP,ioos:station:wmo:42361:1,2007-10-06T00:00:00Z,27.5500,-92.4900,122.0,6.0,150.0,99.0,'11111222,11111222,11144222' 
ADCP,ioos:station:wmo:42361:1,2007-10-06T01:00:00Z,27.5500,-92.4900,122.0,7.0,130.0,99.0,'11111222,11111222,11144222' 
ADCP,ioos:station:wmo:42361:1,2007-10-06T02:00:00Z,27.5500,-92.4900,122.0,7.0,120.0,99.0,'11111222,11111222,11144222' 
ADCP,ioos:station:wmo:42361:1,2007-10-06T03:00:00Z,27.5500,-92.4900,122.0,10.0,110.0,99.0,'11111222,11111222,11144222' 
ADCP,ioos:station:wmo:42361:1,2007-10-06T04:00:00Z,27.5500,-92.4900,122.0,12.0,100.0,99.0,'11111222,11111222,11144222' 
ADCP,ioos:station:wmo:42361:1,2007-10-06T05:00:00Z,27.5500,-92.4900,122.0,10.0,110.0,99.0,'11111222,11111222,11144222' 
ADCP,ioos:station:wmo:42361:1,2007-10-06T06:00:00Z,27.5500,-92.4900,122.0,11.0,110.0,99.0,'11111222,11111222,11144222' 
ADCP,ioos:station:wmo:42361:1,2007-10-06T07:00:00Z,27.5500,-92.4900,122.0,12.0,110.0,99.0,'11111222,11111222,11144222' 
ADCP,ioos:station:wmo:42361:1,2007-10-06T08:00:00Z,27.5500,-92.4900,122.0,16.0,110.0,99.0,'11111222,11111222,11144222' 
ADCP,ioos:station:wmo:42361:1,2007-10-06T09:00:00Z,27.5500,-92.4900,122.0,10.0,120.0,99.0,'11111222,11111222,11144222' 
ADCP,ioos:station:wmo:42361:1,2007-10-06T10:00:00Z,27.5500,-92.4900,122.0,12.0,110.0,99.0,'11111222,11111222,11144222' 
ADCP,ioos:station:wmo:42361:1,2007-10-06T11:00:00Z,27.5500,-92.4900,122.0,10.0,100.0,99.0,'11111222,11111222,11144222' 
ADCP,ioos:station:wmo:42361:1,2007-10-06T12:00:00Z,27.5500,-92.4900,122.0,9.0,100.0,99.0,'11111222,11111222,11144222' 
ADCP,ioos:station:wmo:42361:1,2007-10-06T13:00:00Z,27.5500,-92.4900,122.0,10.0,110.0,99.0,'11111222,11111222,11144222' 
ADCP,ioos:station:wmo:42361:1,2007-10-06T14:00:00Z,27.5500,-92.4900,122.0,9.0,100.0,99.0,'11111222,11111222,11144222' 
ADCP,ioos:station:wmo:42361:1,2007-10-06T15:00:00Z,27.5500,-92.4900,122.0,10.0,100.0,99.0,'11111222,11111222,11144222' 
ADCP,ioos:station:wmo:42361:1,2007-10-06T16:00:00Z,27.5500,-92.4900,122.0,10.0,90.0,99.0,'11111222,11111222,11144222' 
ADCP,ioos:station:wmo:42361:1,2007-10-06T17:00:00Z,27.5500,-92.4900,122.0,9.0,80.0,99.0,'11111222,11111222,11144222' 
ADCP,ioos:station:wmo:42361:1,2007-10-06T18:00:00Z,27.5500,-92.4900,122.0,8.0,70.0,99.0,'11111222,11111222,11144222' 
ADCP,ioos:station:wmo:42361:1,2007-10-06T19:00:00Z,27.5500,-92.4900,122.0,99.0,-9999.0,99.0,'11144222,99999999,11144222' 
ADCP,ioos:station:wmo:42361:1,2007-10-06T20:00:00Z,27.5500,-92.4900,122.0,99.0,-9999.0,99.0,'11144222,99999999,11144222' 
ADCP,ioos:station:wmo:42361:1,2007-10-06T21:00:00Z,27.5500,-92.4900,122.0,99.0,-9999.0,99.0,'11144222,99999999,11144222' 
ADCP,ioos:station:wmo:42361:1,2007-10-06T22:00:00Z,27.5500,-92.4900,122.0,99.0,-9999.0,99.0,'11144222,99999999,11144222' 
ADCP,ioos:station:wmo:42361:1,2007-10-06T23:00:00Z,27.5500,-92.4900,122.0,99.0,-9999.0,99.0,'11144222,99999999,11144222' 
ADCP,ioos:station:wmo:42361:1,2007-10-07T00:00:00Z,27.5500,-92.4900,122.0,99.0,-9999.0,99.0,'11144222,99999999,11144222' 
ADCP,ioos:station:wmo:42361:1,2007-10-07T01:00:00Z,27.5500,-92.4900,122.0,99.0,-9999.0,99.0,'11144222,99999999,11144222' 
ADCP,ioos:station:wmo:42361:1,2007-10-07T02:00:00Z,27.5500,-92.4900,122.0,99.0,-9999.0,99.0,'11144222,99999999,11144222' 
ADCP,ioos:station:wmo:42361:1,2007-10-07T03:00:00Z,27.5500,-92.4900,122.0,99.0,-9999.0,99.0,'11144222,99999999,11144222' 
ADCP,ioos:station:wmo:42361:1,2007-10-07T04:00:00Z,27.5500,-92.4900,122.0,99.0,-9999.0,99.0,'11144222,99999999,11144222' 
ADCP,ioos:station:wmo:42361:1,2007-10-07T05:00:00Z,27.5500,-92.4900,122.0,99.0,-9999.0,99.0,'11144222,99999999,11144222' 
ADCP,ioos:station:wmo:42361:1,2007-10-07T06:00:00Z,27.5500,-92.4900,122.0,99.0,-9999.0,99.0,'11144222,99999999,11144222' 
ADCP,ioos:station:wmo:42361:1,2007-10-07T07:00:00Z,27.5500,-92.4900,122.0,99.0,-9999.0,99.0,'11144222,99999999,11144222' 
ADCP,ioos:station:wmo:42361:1,2007-10-07T08:00:00Z,27.5500,-92.4900,122.0,99.0,-9999.0,99.0,'11144222,99999999,11144222' 
ADCP,ioos:station:wmo:42361:1,2007-10-07T09:00:00Z,27.5500,-92.4900,122.0,99.0,-9999.0,99.0,'11144222,99999999,11144222' 
ADCP,ioos:station:wmo:42361:1,2007-10-07T10:00:00Z,27.5500,-92.4900,122.0,99.0,-9999.0,99.0,'11144222,99999999,11144222' 
ADCP,ioos:station:wmo:42361:1,2007-10-07T11:00:00Z,27.5500,-92.4900,122.0,99.0,-9999.0,99.0,'11144222,99999999,11144222' 
ADCP,ioos:station:wmo:42361:1,2007-10-07T12:00:00Z,27.5500,-92.4900,122.0,99.0,-9999.0,99.0,'11144222,99999999,11144222' 
ADCP,ioos:station:wmo:42361:1,2007-10-07T13:00:00Z,27.5500,-92.4900,122.0,99.0,-9999.0,99.0,'11144222,99999999,11144222' 
ADCP,ioos:station:wmo:42361:1,2007-10-07T14:00:00Z,27.5500,-92.4900,122.0,99.0,-9999.0,99.0,'11144222,99999999,11144222' 
ADCP,ioos:station:wmo:42361:1,2007-10-07T15:00:00Z,27.5500,-92.4900,122.0,99.0,-9999.0,99.0,'11144222,99999999,11144222' 
ADCP,ioos:station:wmo:42361:1,2007-10-07T16:00:00Z,27.5500,-92.4900,122.0,99.0,-9999.0,99.0,'11144222,99999999,11144222' 
ADCP,ioos:station:wmo:42361:1,2007-10-07T17:00:00Z,27.5500,-92.4900,122.0,99.0,-9999.0,99.0,'11144222,99999999,11144222' 
ADCP,ioos:station:wmo:42361:1,2007-10-07T18:00:00Z,27.5500,-92.4900,122.0,99.0,-9999.0,99.0,'11144222,99999999,11144222' 
ADCP,ioos:station:wmo:42361:1,2007-10-07T19:00:00Z,27.5500,-92.4900,122.0,99.0,-9999.0,99.0,'11144222,99999999,11144222' 
ADCP,ioos:station:wmo:42361:1,2007-10-07T20:00:00Z,27.5500,-92.4900,122.0,99.0,-9999.0,99.0,'11144222,99999999,11144222' 
ADCP,ioos:station:wmo:42361:1,2007-10-07T21:00:00Z,27.5500,-92.4900,122.0,99.0,-9999.0,99.0,'11144222,99999999,11144222' 
ADCP,ioos:station:wmo:42361:1,2007-10-07T22:00:00Z,27.5500,-92.4900,122.0,99.0,-9999.0,99.0,'11144222,99999999,11144222' 
ADCP,ioos:station:wmo:42361:1,2007-10-07T23:00:00Z,27.5500,-92.4900,122.0,99.0,-9999.0,99.0,'11144222,99999999,11144222' 
ADCP,ioos:station:wmo:42361:1,2007-10-08T00:00:00Z,27.5500,-92.4900,122.0,99.0,-9999.0,99.0,'11144222,99999999,11144222' 
ADCP,ioos:station:wmo:42361:1,2007-10-08T01:00:00Z,27.5500,-92.4900,122.0,99.0,-9999.0,99.0,'11144222,99999999,11144222' 
ADCP,ioos:station:wmo:42361:1,2007-10-08T02:00:00Z,27.5500,-92.4900,122.0,99.0,-9999.0,99.0,'11144222,99999999,11144222' 
ADCP,ioos:station:wmo:42361:1,2007-10-08T03:00:00Z,27.5500,-92.4900,122.0,99.0,-9999.0,99.0,'11144222,99999999,11144222' 
ADCP,ioos:station:wmo:42361:1,2007-10-08T04:00:00Z,27.5500,-92.4900,122.0,99.0,-9999.0,99.0,'11144222,99999999,11144222' 
ADCP,ioos:station:wmo:42361:1,2007-10-08T05:00:00Z,27.5500,-92.4900,122.0,99.0,-9999.0,99.0,'11144222,99999999,11144222' 
ADCP,ioos:station:wmo:42361:1,2007-10-08T06:00:00Z,27.5500,-92.4900,122.0,99.0,-9999.0,99.0,'11144222,99999999,11144222' 
ADCP,ioos:station:wmo:42361:1,2007-10-08T07:00:00Z,27.5500,-92.4900,122.0,99.0,-9999.0,99.0,'11144222,99999999,11144222' 
ADCP,ioos:station:wmo:42361:1,2007-10-08T08:00:00Z,27.5500,-92.4900,122.0,99.0,-9999.0,99.0,'11144222,99999999,11144222' 
ADCP,ioos:station:wmo:42361:1,2007-10-08T09:00:00Z,27.5500,-92.4900,122.0,99.0,-9999.0,99.0,'11144222,99999999,11144222' 
ADCP,ioos:station:wmo:42361:1,2007-10-08T10:00:00Z,27.5500,-92.4900,122.0,99.0,-9999.0,99.0,'11144222,99999999,11144222' 
ADCP,ioos:station:wmo:42361:1,2007-10-08T11:00:00Z,27.5500,-92.4900,122.0,99.0,-9999.0,99.0,'11144222,99999999,11144222' 
ADCP,ioos:station:wmo:42361:1,2007-10-08T12:00:00Z,27.5500,-92.4900,122.0,99.0,-9999.0,99.0,'11144222,99999999,11144222' 
ADCP,ioos:station:wmo:42361:1,2007-10-08T13:00:00Z,27.5500,-92.4900,122.0,99.0,-9999.0,99.0,'11144222,99999999,11144222' 
ADCP,ioos:station:wmo:42361:1,2007-10-08T14:00:00Z,27.5500,-92.4900,122.0,99.0,-9999.0,99.0,'11144222,99999999,11144222' 
ADCP,ioos:station:wmo:42361:1,2007-10-08T15:00:00Z,27.5500,-92.4900,122.0,99.0,-9999.0,99.0,'11144222,99999999,11144222' 
ADCP,ioos:station:wmo:42361:1,2007-10-08T16:00:00Z,27.5500,-92.4900,122.0,99.0,-9999.0,99.0,'11144222,99999999,11144222' 
ADCP,ioos:station:wmo:42361:1,2007-10-08T17:00:00Z,27.5500,-92.4900,122.0,99.0,-9999.0,99.0,'11144222,99999999,11144222' 
ADCP,ioos:station:wmo:42361:1,2007-10-08T18:00:00Z,27.5500,-92.4900,122.0,99.0,-9999.0,99.0,'11144222,99999999,11144222' 
ADCP,ioos:station:wmo:42361:1,2007-10-08T19:00:00Z,27.5500,-92.4900,122.0,99.0,-9999.0,99.0,'11144222,99999999,11144222' 
ADCP,ioos:station:wmo:42361:1,2007-10-08T20:00:00Z,27.5500,-92.4900,122.0,99.0,-9999.0,99.0,'11144222,99999999,11144222' 
ADCP,ioos:station:wmo:42361:1,2007-10-08T21:00:00Z,27.5500,-92.4900,122.0,99.0,-9999.0,99.0,'11144222,99999999,11144222' 
ADCP,ioos:station:wmo:42361:1,2007-10-08T22:00:00Z,27.5500,-92.4900,122.0,99.0,-9999.0,99.0,'11144222,99999999,11144222' 
ADCP,ioos:station:wmo:42361:1,2007-10-08T23:00:00Z,27.5500,-92.4900,122.0,99.0,-9999.0,99.0,'11144222,99999999,11144222' 
ADCP,ioos:station:wmo:42361:1,2007-10-09T00:00:00Z,27.5500,-92.4900,122.0,99.0,-9999.0,99.0,'11144222,99999999,11144222' 
ADCP,ioos:station:wmo:42361:1,2007-10-09T01:00:00Z,27.5500,-92.4900,122.0,99.0,-9999.0,99.0,'11144222,99999999,11144222' 
ADCP,ioos:station:wmo:42361:1,2007-10-09T02:00:00Z,27.5500,-92.4900,122.0,99.0,-9999.0,99.0,'11144222,99999999,11144222' 
ADCP,ioos:station:wmo:42361:1,2007-10-09T03:00:00Z,27.5500,-92.4900,122.0,99.0,-9999.0,99.0,'11144222,99999999,11144222' 
ADCP,ioos:station:wmo:42361:1,2007-10-09T04:00:00Z,27.5500,-92.4900,122.0,99.0,-9999.0,99.0,'11144222,99999999,11144222' 
ADCP,ioos:station:wmo:42361:1,2007-10-09T05:00:00Z,27.5500,-92.4900,122.0,99.0,-9999.0,99.0,'11144222,99999999,11144222' 
ADCP,ioos:station:wmo:42361:1,2007-10-09T06:00:00Z,27.5500,-92.4900,122.0,99.0,-9999.0,99.0,'11144222,99999999,11144222' 
ADCP,ioos:station:wmo:42361:1,2007-10-09T07:00:00Z,27.5500,-92.4900,122.0,99.0,-9999.0,99.0,'11144222,99999999,11144222' 
ADCP,ioos:station:wmo:42361:1,2007-10-09T08:00:00Z,27.5500,-92.4900,122.0,99.0,-9999.0,99.0,'11144222,99999999,11144222' 
ADCP,ioos:station:wmo:42361:1,2007-10-09T09:00:00Z,27.5500,-92.4900,122.0,99.0,-9999.0,99.0,'11144222,99999999,11144222' 
ADCP,ioos:station:wmo:42361:1,2007-10-09T10:00:00Z,27.5500,-92.4900,122.0,99.0,-9999.0,99.0,'11144222,99999999,11144222' 
ADCP,ioos:station:wmo:42361:1,2007-10-09T11:00:00Z,27.5500,-92.4900,122.0,99.0,-9999.0,99.0,'11144222,99999999,11144222' 
ADCP,ioos:station:wmo:42361:1,2007-10-09T12:00:00Z,27.5500,-92.4900,122.0,99.0,-9999.0,99.0,'11144222,99999999,11144222' 
ADCP,ioos:station:wmo:42361:1,2007-10-09T13:00:00Z,27.5500,-92.4900,122.0,99.0,-9999.0,99.0,'11144222,99999999,11144222' 
ADCP,ioos:station:wmo:42361:1,2007-10-09T14:00:00Z,27.5500,-92.4900,122.0,99.0,-9999.0,99.0,'11144222,99999999,11144222' 
ADCP,ioos:station:wmo:42361:1,2007-10-09T15:00:00Z,27.5500,-92.4900,122.0,99.0,-9999.0,99.0,'11144222,99999999,11144222' 
ADCP,ioos:station:wmo:42361:1,2007-10-09T16:00:00Z,27.5500,-92.4900,122.0,99.0,-9999.0,99.0,'11144222,99999999,11144222' 
ADCP,ioos:station:wmo:42361:1,2007-10-09T17:00:00Z,27.5500,-92.4900,122.0,99.0,-9999.0,99.0,'11144222,99999999,11144222' 
ADCP,ioos:station:wmo:42361:1,2007-10-09T18:00:00Z,27.5500,-92.4900,122.0,99.0,-9999.0,99.0,'11144222,99999999,11144222' 
ADCP,ioos:station:wmo:42361:1,2007-10-09T19:00:00Z,27.5500,-92.4900,122.0,99.0,-9999.0,99.0,'11144222,99999999,11144222' 
ADCP,ioos:station:wmo:42361:1,2007-10-09T20:00:00Z,27.5500,-92.4900,122.0,99.0,-9999.0,99.0,'11144222,99999999,11144222' 
ADCP,ioos:station:wmo:42361:1,2007-10-09T21:00:00Z,27.5500,-92.4900,122.0,99.0,-9999.0,99.0,'11144222,99999999,11144222' 
ADCP,ioos:station:wmo:42361:1,2007-10-09T22:00:00Z,27.5500,-92.4900,122.0,99.0,-9999.0,99.0,'11144222,99999999,11144222' 
ADCP,ioos:station:wmo:42361:1,2007-10-09T23:00:00Z,27.5500,-92.4900,122.0,99.0,-9999.0,99.0,'11144222,99999999,11144222' 
ADCP,ioos:station:wmo:42361:1,2007-10-10T00:00:00Z,27.5500,-92.4900,122.0,99.0,-9999.0,99.0,'11144222,99999999,11144222' 
ADCP,ioos:station:wmo:42361:1,2007-10-10T01:00:00Z,27.5500,-92.4900,122.0,99.0,-9999.0,99.0,'11144222,99999999,11144222' 
ADCP,ioos:station:wmo:42361:1,2007-10-10T02:00:00Z,27.5500,-92.4900,122.0,99.0,-9999.0,99.0,'11144222,99999999,11144222' 
ADCP,ioos:station:wmo:42361:1,2007-10-10T03:00:00Z,27.5500,-92.4900,122.0,99.0,-9999.0,99.0,'11144222,99999999,11144222' 
ADCP,ioos:station:wmo:42361:1,2007-10-10T04:00:00Z,27.5500,-92.4900,122.0,99.0,-9999.0,99.0,'11144222,99999999,11144222' 
ADCP,ioos:station:wmo:42361:1,2007-10-10T05:00:00Z,27.5500,-92.4900,122.0,99.0,-9999.0,99.0,'11144222,99999999,11144222' 
ADCP,ioos:station:wmo:42361:1,2007-10-10T06:00:00Z,27.5500,-92.4900,122.0,99.0,-9999.0,99.0,'11144222,99999999,11144222' 
ADCP,ioos:station:wmo:42361:1,2007-10-10T07:00:00Z,27.5500,-92.4900,122.0,99.0,-9999.0,99.0,'11144222,99999999,11144222' 
ADCP,ioos:station:wmo:42361:1,2007-10-10T08:00:00Z,27.5500,-92.4900,122.0,99.0,-9999.0,99.0,'11144222,99999999,11144222' 
ADCP,ioos:station:wmo:42361:1,2007-10-10T09:00:00Z,27.5500,-92.4900,122.0,99.0,-9999.0,99.0,'11144222,99999999,11144222' 
ADCP,ioos:station:wmo:42361:1,2007-10-10T10:00:00Z,27.5500,-92.4900,122.0,99.0,-9999.0,99.0,'11144222,99999999,11144222' 
ADCP,ioos:station:wmo:42361:1,2007-10-10T11:00:00Z,27.5500,-92.4900,122.0,99.0,-9999.0,99.0,'11144222,99999999,11144222' 
ADCP,ioos:station:wmo:42361:1,2007-10-10T12:00:00Z,27.5500,-92.4900,122.0,99.0,-9999.0,99.0,'11144222,99999999,11144222' 
ADCP,ioos:station:wmo:42361:1,2007-10-10T13:00:00Z,27.5500,-92.4900,122.0,99.0,-9999.0,99.0,'11144222,99999999,11144222' 
ADCP,ioos:station:wmo:42361:1,2007-10-10T14:00:00Z,27.5500,-92.4900,122.0,99.0,-9999.0,99.0,'11144222,99999999,11144222' 
ADCP,ioos:station:wmo:42361:1,2007-10-10T15:00:00Z,27.5500,-92.4900,122.0,99.0,-9999.0,99.0,'11144222,99999999,11144222' 
ADCP,ioos:station:wmo:42361:1,2007-10-10T16:00:00Z,27.5500,-92.4900,122.0,99.0,-9999.0,99.0,'11144222,99999999,11144222' 
ADCP,ioos:station:wmo:42361:1,2007-10-10T17:00:00Z,27.5500,-92.4900,122.0,99.0,-9999.0,99.0,'11144222,99999999,11144222' 
ADCP,ioos:station:wmo:42361:1,2007-10-10T18:00:00Z,27.5500,-92.4900,122.0,99.0,-9999.0,99.0,'11144222,99999999,11144222' 
ADCP,ioos:station:wmo:42361:1,2007-10-10T19:00:00Z,27.5500,-92.4900,122.0,99.0,-9999.0,99.0,'11144222,99999999,11144222' 
ADCP,ioos:station:wmo:42361:1,2007-10-10T20:00:00Z,27.5500,-92.4900,122.0,99.0,-9999.0,99.0,'11144222,99999999,11144222' 
ADCP,ioos:station:wmo:42361:1,2007-10-10T21:00:00Z,27.5500,-92.4900,122.0,99.0,-9999.0,99.0,'11144222,99999999,11144222' 
ADCP,ioos:station:wmo:42361:1,2007-10-10T22:00:00Z,27.5500,-92.4900,122.0,99.0,-9999.0,99.0,'11144222,99999999,11144222' 
ADCP,ioos:station:wmo:42361:1,2007-10-10T23:00:00Z,27.5500,-92.4900,122.0,99.0,-9999.0,99.0,'11144222,99999999,11144222' 
ADCP,ioos:station:wmo:42361:1,2007-10-11T00:00:00Z,27.5500,-92.4900,122.0,99.0,-9999.0,99.0,'11144222,99999999,11144222' 
ADCP,ioos:station:wmo:42361:1,2007-10-11T01:00:00Z,27.5500,-92.4900,122.0,99.0,-9999.0,99.0,'11144222,99999999,11144222' 
ADCP,ioos:station:wmo:42361:1,2007-10-11T02:00:00Z,27.5500,-92.4900,122.0,99.0,-9999.0,99.0,'11144222,99999999,11144222' 
ADCP,ioos:station:wmo:42361:1,2007-10-11T03:00:00Z,27.5500,-92.4900,122.0,99.0,-9999.0,99.0,'11144222,99999999,11144222' 
ADCP,ioos:station:wmo:42361:1,2007-10-11T04:00:00Z,27.5500,-92.4900,122.0,99.0,-9999.0,99.0,'11144222,99999999,11144222' 
ADCP,ioos:station:wmo:42361:1,2007-10-11T05:00:00Z,27.5500,-92.4900,122.0,99.0,-9999.0,99.0,'11144222,99999999,11144222' 
ADCP,ioos:station:wmo:42361:1,2007-10-11T06:00:00Z,27.5500,-92.4900,122.0,99.0,-9999.0,99.0,'11144222,99999999,11144222' 
ADCP,ioos:station:wmo:42361:1,2007-10-11T07:00:00Z,27.5500,-92.4900,122.0,99.0,-9999.0,99.0,'11144222,99999999,11144222' 
ADCP,ioos:station:wmo:42361:1,2007-10-11T08:00:00Z,27.5500,-92.4900,122.0,99.0,-9999.0,99.0,'11144222,99999999,11144222' 
ADCP,ioos:station:wmo:42361:1,2007-10-11T09:00:00Z,27.5500,-92.4900,122.0,99.0,-9999.0,99.0,'11144222,99999999,11144222' 
ADCP,ioos:station:wmo:42361:1,2007-10-11T10:00:00Z,27.5500,-92.4900,122.0,99.0,-9999.0,99.0,'11144222,99999999,11144222' 
ADCP,ioos:station:wmo:42361:1,2007-10-11T11:00:00Z,27.5500,-92.4900,122.0,99.0,-9999.0,99.0,'11144222,99999999,11144222' 
ADCP,ioos:station:wmo:42361:1,2007-10-11T12:00:00Z,27.5500,-92.4900,122.0,99.0,-9999.0,99.0,'11144222,99999999,11144222' 
ADCP,ioos:station:wmo:42361:1,2007-10-11T13:00:00Z,27.5500,-92.4900,122.0,99.0,-9999.0,99.0,'11144222,99999999,11144222' 
ADCP,ioos:station:wmo:42361:1,2007-10-11T14:00:00Z,27.5500,-92.4900,122.0,99.0,-9999.0,99.0,'11144222,99999999,11144222' 
ADCP,ioos:station:wmo:42361:1,2007-10-11T15:00:00Z,27.5500,-92.4900,122.0,99.0,-9999.0,99.0,'11144222,99999999,11144222' 
ADCP,ioos:station:wmo:42361:1,2007-10-11T16:00:00Z,27.5500,-92.4900,122.0,99.0,-9999.0,99.0,'11144222,99999999,11144222' 
ADCP,ioos:station:wmo:42361:1,2007-10-11T17:00:00Z,27.5500,-92.4900,122.0,99.0,-9999.0,99.0,'11144222,99999999,11144222' 
ADCP,ioos:station:wmo:42361:1,2007-10-11T18:00:00Z,27.5500,-92.4900,122.0,99.0,-9999.0,99.0,'11144222,99999999,11144222' 
ADCP,ioos:station:wmo:42361:1,2007-10-11T19:00:00Z,27.5500,-92.4900,122.0,99.0,-9999.0,99.0,'11144222,99999999,11144222' 
ADCP,ioos:station:wmo:42361:1,2007-10-11T20:00:00Z,27.5500,-92.4900,122.0,99.0,-9999.0,99.0,'11144222,99999999,11144222' 
ADCP,ioos:station:wmo:42361:1,2007-10-11T21:00:00Z,27.5500,-92.4900,122.0,99.0,-9999.0,99.0,'11144222,99999999,11144222' 
ADCP,ioos:station:wmo:42361:1,2007-10-11T22:00:00Z,27.5500,-92.4900,122.0,99.0,-9999.0,99.0,'11144222,99999999,11144222' 
ADCP,ioos:station:wmo:42361:1,2007-10-11T23:00:00Z,27.5500,-92.4900,122.0,99.0,-9999.0,99.0,'11144222,99999999,11144222' 
ADCP,ioos:station:wmo:42361:1,2007-10-12T00:00:00Z,27.5500,-92.4900,122.0,99.0,-9999.0,99.0,'11144222,99999999,11144222' 
ADCP,ioos:station:wmo:42361:1,2007-10-12T01:00:00Z,27.5500,-92.4900,122.0,99.0,-9999.0,99.0,'11144222,99999999,11144222' 
ADCP,ioos:station:wmo:42361:1,2007-10-12T02:00:00Z,27.5500,-92.4900,122.0,99.0,-9999.0,99.0,'11144222,99999999,11144222' 
ADCP,ioos:station:wmo:42361:1,2007-10-12T03:00:00Z,27.5500,-92.4900,122.0,99.0,-9999.0,99.0,'11144222,99999999,11144222' 
ADCP,ioos:station:wmo:42361:1,2007-10-12T04:00:00Z,27.5500,-92.4900,122.0,99.0,-9999.0,99.0,'11144222,99999999,11144222' 
ADCP,ioos:station:wmo:42361:1,2007-10-12T05:00:00Z,27.5500,-92.4900,122.0,99.0,-9999.0,99.0,'11144222,99999999,11144222' 
ADCP,ioos:station:wmo:42361:1,2007-10-12T06:00:00Z,27.5500,-92.4900,122.0,99.0,-9999.0,99.0,'11144222,99999999,11144222' 
ADCP,ioos:station:wmo:42361:1,2007-10-12T07:00:00Z,27.5500,-92.4900,122.0,99.0,-9999.0,99.0,'11144222,99999999,11144222' 
ADCP,ioos:station:wmo:42361:1,2007-10-12T08:00:00Z,27.5500,-92.4900,122.0,99.0,-9999.0,99.0,'11144222,99999999,11144222' 
ADCP,ioos:station:wmo:42361:1,2007-10-12T09:00:00Z,27.5500,-92.4900,122.0,99.0,-9999.0,99.0,'11144222,99999999,11144222' 
ADCP,ioos:station:wmo:42361:1,2007-10-12T10:00:00Z,27.5500,-92.4900,122.0,99.0,-9999.0,99.0,'11144222,99999999,11144222' 
ADCP,ioos:station:wmo:42361:1,2007-10-12T11:00:00Z,27.5500,-92.4900,122.0,99.0,-9999.0,99.0,'11144222,99999999,11144222' 
ADCP,ioos:station:wmo:42361:1,2007-10-12T12:00:00Z,27.5500,-92.4900,122.0,99.0,-9999.0,99.0,'11144222,99999999,11144222' 
ADCP,ioos:station:wmo:42361:1,2007-10-12T13:00:00Z,27.5500,-92.4900,122.0,99.0,-9999.0,99.0,'11144222,99999999,11144222' 
ADCP,ioos:station:wmo:42361:1,2007-10-12T14:00:00Z,27.5500,-92.4900,122.0,99.0,-9999.0,99.0,'11144222,99999999,11144222' 
ADCP,ioos:station:wmo:42361:1,2007-10-12T15:00:00Z,27.5500,-92.4900,122.0,99.0,-9999.0,99.0,'11144222,99999999,11144222' 
ADCP,ioos:station:wmo:42361:1,2007-10-12T16:00:00Z,27.5500,-92.4900,122.0,99.0,-9999.0,99.0,'11144222,99999999,11144222' 
ADCP,ioos:station:wmo:42361:1,2007-10-12T17:00:00Z,27.5500,-92.4900,122.0,99.0,-9999.0,99.0,'11144222,99999999,11144222' 
ADCP,ioos:station:wmo:42361:1,2007-10-12T18:00:00Z,27.5500,-92.4900,122.0,99.0,-9999.0,99.0,'11144222,99999999,11144222' 
ADCP,ioos:station:wmo:42361:1,2007-10-12T19:00:00Z,27.5500,-92.4900,122.0,99.0,-9999.0,99.0,'11144222,99999999,11144222' 
ADCP,ioos:station:wmo:42361:1,2007-10-12T20:00:00Z,27.5500,-92.4900,122.0,99.0,-9999.0,99.0,'11144222,99999999,11144222' 
ADCP,ioos:station:wmo:42361:1,2007-10-12T21:00:00Z,27.5500,-92.4900,122.0,99.0,-9999.0,99.0,'11144222,99999999,11144222' 
ADCP,ioos:station:wmo:42361:1,2007-10-12T22:00:00Z,27.5500,-92.4900,122.0,99.0,-9999.0,99.0,'11144222,99999999,11144222' 
ADCP,ioos:station:wmo:42361:1,2007-10-12T23:00:00Z,27.5500,-92.4900,122.0,99.0,-9999.0,99.0,'11144222,99999999,11144222' 
ADCP,ioos:station:wmo:42361:1,2007-10-13T00:00:00Z,27.5500,-92.4900,122.0,99.0,-9999.0,99.0,'11144222,99999999,11144222' 
ADCP,ioos:station:wmo:42361:1,2007-10-13T01:00:00Z,27.5500,-92.4900,122.0,99.0,-9999.0,99.0,'11144222,99999999,11144222' 
ADCP,ioos:station:wmo:42361:1,2007-10-13T02:00:00Z,27.5500,-92.4900,122.0,99.0,-9999.0,99.0,'11144222,99999999,11144222' 
ADCP,ioos:station:wmo:42361:1,2007-10-13T03:00:00Z,27.5500,-92.4900,122.0,99.0,-9999.0,99.0,'11144222,99999999,11144222' 
ADCP,ioos:station:wmo:42361:1,2007-10-13T04:00:00Z,27.5500,-92.4900,122.0,99.0,-9999.0,99.0,'11144222,99999999,11144222' 
ADCP,ioos:station:wmo:42361:1,2007-10-13T05:00:00Z,27.5500,-92.4900,122.0,99.0,-9999.0,99.0,'11144222,99999999,11144222' 
ADCP,ioos:station:wmo:42361:1,2007-10-13T06:00:00Z,27.5500,-92.4900,122.0,99.0,-9999.0,99.0,'11144222,99999999,11144222' 
ADCP,ioos:station:wmo:42361:1,2007-10-13T07:00:00Z,27.5500,-92.4900,122.0,99.0,-9999.0,99.0,'11144222,99999999,11144222' 
ADCP,ioos:station:wmo:42361:1,2007-10-13T08:00:00Z,27.5500,-92.4900,122.0,99.0,-9999.0,99.0,'11144222,99999999,11144222' 
ADCP,ioos:station:wmo:42361:1,2007-10-13T09:00:00Z,27.5500,-92.4900,122.0,99.0,-9999.0,99.0,'11144222,99999999,11144222' 
ADCP,ioos:station:wmo:42361:1,2007-10-13T10:00:00Z,27.5500,-92.4900,122.0,99.0,-9999.0,99.0,'11144222,99999999,11144222' 
ADCP,ioos:station:wmo:42361:1,2007-10-13T11:00:00Z,27.5500,-92.4900,122.0,99.0,-9999.0,99.0,'11144222,99999999,11144222' 
ADCP,ioos:station:wmo:42361:1,2007-10-13T12:00:00Z,27.5500,-92.4900,122.0,99.0,-9999.0,99.0,'11144222,99999999,11144222' 
ADCP,ioos:station:wmo:42361:1,2007-10-13T13:00:00Z,27.5500,-92.4900,122.0,99.0,-9999.0,99.0,'11144222,99999999,11144222' 
ADCP,ioos:station:wmo:42361:1,2007-10-13T14:00:00Z,27.5500,-92.4900,122.0,99.0,-9999.0,99.0,'11144222,99999999,11144222' 
ADCP,ioos:station:wmo:42361:1,2007-10-13T15:00:00Z,27.5500,-92.4900,122.0,99.0,-9999.0,99.0,'11144222,99999999,11144222' 
ADCP,ioos:station:wmo:42361:1,2007-10-13T16:00:00Z,27.5500,-92.4900,122.0,99.0,-9999.0,99.0,'11144222,99999999,11144222' 
ADCP,ioos:station:wmo:42361:1,2007-10-13T17:00:00Z,27.5500,-92.4900,122.0,99.0,-9999.0,99.0,'11144222,99999999,11144222' 
ADCP,ioos:station:wmo:42361:1,2007-10-13T18:00:00Z,27.5500,-92.4900,122.0,99.0,-9999.0,99.0,'11144222,99999999,11144222' 
ADCP,ioos:station:wmo:42361:1,2007-10-13T19:00:00Z,27.5500,-92.4900,122.0,99.0,-9999.0,99.0,'11144222,99999999,11144222' 
ADCP,ioos:station:wmo:42361:1,2007-10-13T20:00:00Z,27.5500,-92.4900,122.0,99.0,-9999.0,99.0,'11144222,99999999,11144222' 
ADCP,ioos:station:wmo:42361:1,2007-10-13T21:00:00Z,27.5500,-92.4900,122.0,99.0,-9999.0,99.0,'11144222,99999999,11144222' 
ADCP,ioos:station:wmo:42361:1,2007-10-13T22:00:00Z,27.5500,-92.4900,122.0,99.0,-9999.0,99.0,'11144222,99999999,11144222' 